sat.trackr.live / text

‹ back to catalog

STARLINK-34755

NORAD 64940 · 2025-158J

PAYLOAD ACTIVE UNKNOWN

§ Identity

Operator
Country
US
Launch date
2025-07-27
Launch site
AFWTR
Launch vehicle
Mass (kg)
RCS (m²)

Purposes: comms

External: N2YO · Heavens-Above · Gunter

§ Orbital elements

Epoch: 2026-09-20T13:59:46.449600Z

Period
93.91 min
Inclination
97.2840°
Eccentricity
0.0001854
Mean motion
15.33449042 rev/d
Perigee alt
464.3 km
Apogee alt
466.8 km
Semi-major
6,843.7 km
B*
3.0217e-4
RAAN
121.8635°
Arg perigee
91.3498°
Mean anomaly
268.7957°
Rev number
6,471

§ Raw data

STARLINK-347551 64940U 25158J   26263.58317650  .00009694  00000+0  30217-3 0  99912 64940  97.2840 121.8635 0001854  91.3498 268.7957 15.33449042 64710

JSON: /api/v1/satellites/64940 · /tle

For live sub-satellite position, see the globe view (requires WebGL).

§ Visibility from observer

Set your observer location to see the next 7 days of passes ≥ 10°. The values pass through the URL so the page stays shareable.

No JS? Fill the form by hand. The geolocation button needs JavaScript.